FW2969 Weather Reports


time (UTC)temp
C
wind
direction
speed
KPH
gust
KPH
rain 1hr
cm
rain 24hr
cm
rain mn
cm
humidity
%
barometer
mb
20260906123100 22 287 6.4 19.3 0.00 0.03 0.03 85 1011.5
20260906121556 22 285 6.4 17.7 0.00 0.03 0.03 85 1011.3
20260906120059 22 331 4.8 16.1 0.00 0.03 0.03 83 1011.3
20260906114555 22 318 4.8 16.1 0.00 0.03 0.03 84 1011.3
20260906113054 23 283 6.4 22.5 0.00 0.03 0.03 83 1011.3
20260906111553 23 217 4.8 19.3 0.00 0.03 0.03 82 1011.2
20260906110055 23 326 6.4 20.9 0.00 0.03 0.03 81 1011.2
20260906104553 23 293 9.7 17.7 0.00 0.03 0.03 81 1011.1
20260906103102 23 344 8.0 17.7 0.00 0.03 0.03 81 1011.3
20260906101549 24 317 3.2 20.9 0.00 0.03 0.03 79 1011.2
20260906100048 25 267 3.2 12.9 0.00 0.03 0.03 77 1011.0
20260906094548 25 292 4.8 14.5 0.00 0.03 0.03 77 1011.1
20260906093050 25 207 4.8 14.5 0.00 0.03 0.03 76 1011.2
20260906091545 24 190 3.2 16.1 0.00 0.03 0.03 81 1011.3
20260906090058 23 319 4.8 14.5 0.00 0.03 0.03 81 1011.6
20260906084544 23 315 4.8 14.5 0.00 0.03 0.03 78 1011.7
20260906083042 24 324 6.4 14.5 0.00 0.03 0.03 69 1011.7
20260906081542 25 310 4.8 14.5 0.00 0.03 0.03 64 1011.8
20260906080038 24 357 0.0 4.8 0.00 0.03 0.03 66 1011.8
20260906074537 23 213 0.0 6.4 0.00 0.03 0.03 67 1011.8
20260906073036 23 171 0.0 6.4 0.00 0.03 0.03 71 1011.8
20260906071528 22 98 0.0 4.8 0.00 0.03 0.03 76 1011.9
20260906070034 21 196 0.0 4.8 0.00 0.03 0.03 81 1012.1
20260906064524 21 205 1.6 6.4 0.00 0.03 0.03 85 1012.0
20260906063039 21 216 0.0 3.2 0.00 0.03 0.03 86 1012.0
20260906061522 21 255 1.6 6.4 0.00 0.03 0.03 87 1012.0
20260906060022 20 324 0.0 9.7 0.00 0.03 0.03 85 1011.7
20260906054520 21 300 1.6 8.0 0.00 0.03 0.03 82 1011.6
20260906053019 21 217 1.6 6.4 0.00 0.03 0.03 76 1011.3
20260906051532 21 106 0.0 3.2 0.00 0.03 0.03 70 1011.1
20260906050013 20 106 0.0 3.2 0.00 0.03 0.03 74 1011.0
20260906044509 19 105 0.0 3.2 0.00 0.03 0.03 81 1011.0
20260906043007 18 106 0.0 1.6 0.00 0.03 0.03 85 1011.0
20260906041507 17 106 0.0 3.2 0.00 0.03 0.03 87 1011.1
20260906040016 17 106 0.0 4.8 0.00 0.03 0.03 87 1010.9
20260906034505 17 101 0.0 0.0 0.00 0.03 0.03 86 1010.9
20260906033004 17 101 0.0 1.6 0.00 0.03 0.03 85 1010.8
20260906031502 17 101 0.0 0.0 0.00 0.03 0.03 85 1010.8
20260906030002 17 101 0.0 1.6 0.00 0.03 0.03 87 1010.8
20260906024501 17 101 0.0 1.6 0.00 0.03 0.03 89 1010.6
20260906023159 16 101 0.0 0.0 0.00 0.03 0.03 91 1010.5
20260906021603 16 101 0.0 1.6 0.00 0.03 0.03 92 1010.6
20260906020105 16 101 0.0 1.6 0.03 0.03 0.03 93 1010.5
20260906014555 16 101 0.0 0.0 0.03 0.03 0.03 93 1010.5
20260906013104 17 101 0.0 1.6 0.03 0.03 0.03 93 1010.5
20260906011553 17 101 0.0 1.6 0.03 0.03 0.03 94 1010.6
20260906010053 17 101 0.0 1.6 0.00 0.00 0.00 93 1010.7
20260906004549 17 101 0.0 4.8 0.00 0.00 0.00 94 1010.7
20260906003048 17 111 0.0 4.8 0.00 0.00 0.00 93 1010.8
20260906001547 18 103 0.0 3.2 0.00 0.00 0.00 93 1011.0
20260906000052 18 70 0.0 0.0 0.00 0.00 0.00 94 1011.2
20260905234552 17 70 0.0 0.0 0.00 0.00 0.00 93 1011.2
20260905233046 17 70 0.0 0.0 0.00 0.00 0.00 94 1011.2
20260905231544 17 70 0.0 0.0 0.00 0.00 0.00 94 1011.1
20260905230044 17 70 0.0 0.0 0.00 0.00 0.00 94 1011.1
20260905224543 17 70 0.0 0.0 0.00 0.00 0.00 94 1011.0
20260905223045 17 70 0.0 1.6 0.00 0.00 0.00 94 1011.0
20260905221536 17 70 0.0 1.6 0.00 0.00 0.00 94 1011.2
20260905220033 18 70 0.0 0.0 0.00 0.00 0.00 95 1011.2
20260905214531 19 70 0.0 1.6 0.00 0.00 0.00 95 1011.4
20260905213027 18 70 0.0 1.6 0.00 0.00 0.00 95 1011.7
20260905211526 18 70 0.0 1.6 0.00 0.00 0.00 94 1011.8
20260905210038 18 70 0.0 0.0 0.00 0.00 0.00 94 1011.9
20260905204530 18 70 0.0 1.6 0.00 0.00 0.00 94 1011.7
20260905203023 18 70 0.0 0.0 0.00 0.00 0.00 93 1011.7
20260905201520 18 70 0.0 0.0 0.00 0.00 0.00 93 1011.7
20260905200024 18 70 0.0 0.0 0.00 0.00 0.00 93 1011.5
20260905194519 19 70 0.0 0.0 0.00 0.00 0.00 93 1011.5
20260905193022 19 70 0.0 0.0 0.00 0.00 0.00 93 1011.5
20260905191521 19 70 0.0 0.0 0.00 0.00 0.00 93 1011.5
20260905190020 20 70 0.0 0.0 0.00 0.00 0.00 93 1011.4
20260905184520 20 70 0.0 1.6 0.00 0.00 0.00 93 1011.5
20260905183016 20 70 0.0 3.2 0.00 0.00 0.00 93 1011.5
20260905181520 20 344 0.0 1.6 0.00 0.00 0.00 93 1011.5
20260905180015 20 327 0.0 1.6 0.00 0.00 0.00 92 1011.5
20260905174520 20 322 0.0 0.0 0.00 0.00 0.00 92 1011.7
20260905173013 20 322 0.0 1.6 0.00 0.00 0.00 91 1011.6
20260905171524 21 321 0.0 0.0 0.00 0.00 0.00 91 1011.4
20260905170014 21 321 0.0 1.6 0.00 0.00 0.00 90 1011.2
20260905164511 21 321 0.0 0.0 0.00 0.00 0.00 89 1011.0
20260905163010 21 321 0.0 0.0 0.00 0.00 0.00 89 1010.9
20260905161511 21 321 0.0 3.2 0.00 0.00 0.00 87 1010.8
20260905160010 22 324 0.0 1.6 0.00 0.00 0.00 86 1010.9
20260905154509 22 261 0.0 1.6 0.00 0.00 0.00 84 1010.8
20260905153010 23 278 0.0 4.8 0.00 0.00 0.00 82 1010.7
20260905151508 23 267 0.0 8.0 0.00 0.00 0.00 81 1010.7
20260905150007 23 326 0.0 6.4 0.00 0.00 0.00 81 1010.7
20260905144505 23 250 0.0 8.0 0.00 0.00 0.00 81 1010.6
20260905143005 23 305 3.2 11.3 0.00 0.00 0.00 79 1010.7
20260905141505 24 230 1.6 9.7 0.00 0.00 0.00 76 1010.7
20260905140003 24 255 1.6 9.7 0.00 0.00 0.00 77 1010.6
20260905134501 24 332 0.0 6.4 0.00 0.00 0.00 77 1010.7
20260905133003 23 288 1.6 14.5 0.00 0.00 0.00 78 1010.8
20260905131600 24 283 4.8 16.1 0.00 0.00 0.00 79 1010.9
20260905130058 23 235 1.6 17.7 0.00 0.00 0.00 81 1010.8
20260905124558 23 281 0.0 9.7 0.00 0.00 0.00 82 1010.9